GEFSSGP_con_maxscp_066.txt.gz
SCP
0 0 0 0 0 0 0 0 0 0 0 0 0 0 0 0 0 0 0 0 1 1 1 1 1 0 0 1 1 1 1 1 1 1 1 1 0 0 0 0 0 0 0 0 0 0 0 0 0
0 0 0 0 0 0 0 0 0 0 0 0 0 0 0 0 0 0 0 0 1 1 1 1 1 1 1 1 1 1 1 1 1 1 1 1 0 0 0 0 0 0 0 0 0 0 0 0 0
0 0 0 0 0 0 0 0 0 0 0 0 0 0 0 0 0 0 0 1 1 1 1 1 1 1 1 1 1 1 1 1 1 1 1 1 1 0 0 0 0 0 0 0 0 0 0 0 0
0 0 0 0 0 0 0 0 0 0 0 0 0 0 0 0 1 1 1 1 1 1 1 1 1 1 1 1 1 1 1 1 1 1 1 1 1 1 1 0 1 0 0 0 0 0 0 0 0
0 0 0 0 0 0 0 0 0 0 0 0 0 0 0 1 1 1 1 1 0 0 1 1 1 1 1 1 1 1 1 1 1 1 1 1 1 1 1 1 1 1 0 0 0 0 0 0 0
0 0 0 0 0 0 0 0 0 0 0 0 0 0 0 1 1 1 1 1 1 0 1 1 1 1 1 1 1 1 1 1 1 1 1 1 1 1 1 1 1 1 1 0 0 0 0 0 0
0 0 0 0 0 0 0 0 0 0 0 0 0 0 1 1 1 1 1 1 1 1 1 1 1 1 1 1 1 1 1 1 1 1 1 1 1 1 1 1 1 1 1 1 0 0 0 0 1
0 0 0 0 0 0 0 0 0 0 0 0 0 0 1 1 1 2 2 2 1 1 1 1 1 1 1 1 1 1 1 1 1 1 1 1 1 1 1 1 1 1 1 1 1 1 1 1 1
0 0 0 0 0 0 0 0 0 0 0 0 0 1 1 2 2 2 3 3 3 2 1 1 1 1 1 1 1 2 2 2 2 2 2 2 1 1 1 1 1 1 1 1 1 1 1 1 1
0 0 0 0 0 0 0 0 0 0 0 1 1 1 2 2 3 3 3 3 4 3 2 2 2 2 2 3 3 2 2 2 2 2 2 2 2 2 2 2 2 2 1 1 1 1 1 1 1
0 0 0 0 0 0 0 0 0 1 1 1 1 2 2 2 3 3 3 4 4 4 3 2 3 3 4 4 4 3 2 3 3 3 3 3 3 3 3 3 3 2 2 2 1 1 1 1 1
0 0 0 0 0 0 0 0 1 1 1 2 2 2 3 3 3 3 4 4 4 4 3 3 4 5 6 5 4 3 3 3 3 4 4 4 4 3 4 4 3 3 2 2 2 2 2 1 2
0 0 0 0 0 0 0 1 1 1 2 2 2 3 4 4 3 3 4 4 4 4 4 4 6 7 8 6 5 4 3 4 4 5 5 5 5 4 4 4 4 3 3 3 3 3 3 2 2
0 0 0 0 0 0 1 2 2 2 2 2 3 3 4 4 4 4 4 4 4 3 4 5 7 8 8 6 5 4 4 5 4 5 5 5 5 5 5 5 5 4 3 3 3 3 4 3 3
0 0 0 0 0 0 1 2 2 2 2 3 3 3 4 5 5 5 5 4 4 4 4 5 6 7 7 6 5 5 5 5 5 5 5 5 5 6 6 7 7 5 4 4 4 5 4 3 3
0 0 0 0 0 0 1 1 2 2 3 3 3 4 4 5 5 5 5 4 4 5 5 5 6 6 6 6 5 5 5 4 4 5 5 5 5 6 6 7 7 6 4 4 4 5 4 3 2
0 0 0 0 0 0 1 1 2 3 3 3 3 3 4 4 4 4 5 5 5 5 5 5 6 6 6 6 6 5 5 4 5 5 5 4 4 5 6 7 6 5 5 4 4 4 3 3 2
0 0 0 0 1 1 1 2 2 3 3 3 3 3 3 3 3 3 4 5 5 5 5 5 6 6 7 7 7 6 5 5 5 5 4 4 4 5 5 5 5 5 6 6 5 4 3 2 2
0 0 0 0 0 1 1 1 2 2 2 2 2 3 3 2 2 3 3 4 5 5 4 4 4 5 6 7 6 5 4 4 4 4 3 3 4 5 5 5 4 5 6 7 6 4 3 2 2
0 0 0 0 0 1 1 1 1 1 1 2 2 2 2 2 2 2 2 3 4 4 3 2 2 3 4 4 3 3 2 2 2 2 2 2 3 4 4 4 4 4 5 5 5 4 3 2 2
0 0 0 0 0 0 1 1 1 1 1 1 2 2 2 2 2 2 2 2 2 2 2 2 2 2 2 2 1 1 1 1 1 1 1 1 2 2 2 2 3 3 3 3 3 3 3 2 2
0 0 0 0 0 0 1 1 1 1 1 1 1 1 1 1 1 1 1 1 1 2 2 2 2 1 1 1 1 1 1 1 1 1 1 1 1 1 1 2 2 3 2 1 2 2 2 2 2
0 0 0 0 0 0 1 1 1 1 1 1 1 1 1 1 1 1 1 1 1 1 1 2 2 2 1 1 1 1 1 1 1 1 1 1 1 1 1 2 3 3 2 2 2 2 2 2 2
0 0 0 0 0 0 1 1 1 1 1 1 1 1 1 1 1 1 1 1 1 1 1 1 2 2 2 1 1 1 1 1 1 1 1 1 1 1 1 2 2 3 3 2 2 2 2 2 2
0 0 0 0 0 0 1 1 1 1 1 1 1 1 1 1 1 1 1 1 1 1 1 1 1 2 2 2 2 2 1 1 1 1 1 1 1 1 1 1 2 2 3 3 3 3 3 3 3
0 0 0 0 0 0 0 1 1 1 1 1 1 1 1 1 1 1 1 1 1 1 1 1 1 1 1 1 2 2 2 1 1 1 1 1 1 1 1 1 1 2 2 2 3 3 3 3 3
0 0 0 0 0 0 0 1 1 1 1 1 1 1 1 1 1 1 1 1 1 1 1 1 1 1 1 1 1 1 2 1 1 1 1 1 1 1 1 1 1 1 1 2 2 3 3 3 3
0 0 0 0 0 0 0 1 1 1 0 0 1 1 1 1 1 0 0 0 0 0 0 1 1 1 1 1 1 1 1 2 2 2 2 2 2 2 1 1 1 1 1 1 1 2 2 2 2
0 0 0 0 0 0 0 0 1 1 0 0 0 0 0 0 0 0 0 0 0 0 0 0 1 1 1 1 1 1 1 1 2 2 2 2 2 2 2 1 0 0 0 1 1 1 1 1 1
0 0 0 0 0 0 0 0 0 0 0 0 0 0 0 0 0 0 0 0 0 0 0 0 0 1 1 1 1 1 1 1 2 2 2 2 3 3 2 1 1 0 0 0 0 1 1 1 1

GEFSSGP_con_maxscp_072.txt.gz
SCP
0 0 0 0 0 1 1 1 1 0 0 0 0 0 0 0 0 1 1 2 3 3 2 2 2 2 1 1 1 1 1 1 0 0 0 0 0 0 0 0 0 0 0 0 0 0 0 0 0
0 0 0 0 1 1 1 1 0 0 0 0 0 0 0 1 1 1 1 2 3 3 2 2 2 1 1 1 1 1 1 1 1 1 0 0 0 0 0 0 0 0 0 0 0 0 0 0 0
0 0 0 0 1 1 1 0 0 0 0 0 0 0 1 1 1 1 2 2 3 2 1 1 2 1 1 1 1 1 1 1 1 1 1 1 0 0 0 0 0 0 1 0 0 0 0 0 0
0 0 0 0 1 1 1 0 0 0 0 0 0 1 1 1 1 1 2 2 2 2 2 1 1 1 1 1 1 1 1 1 1 1 1 1 1 1 1 1 1 1 1 1 1 0 0 0 0
0 0 0 0 0 0 0 0 0 0 0 0 1 1 1 1 1 1 1 2 2 2 2 2 1 1 1 1 1 1 1 1 1 1 1 1 1 1 1 1 1 1 1 1 1 1 1 1 1
0 0 0 0 0 0 0 0 0 0 0 0 1 2 2 1 1 1 1 1 2 3 3 2 2 1 1 1 1 1 1 1 1 1 1 1 1 1 1 1 1 1 1 1 1 1 1 1 1
0 0 0 0 0 0 0 0 0 0 0 0 1 2 2 1 1 1 1 1 3 5 4 3 2 2 2 1 1 1 1 1 2 2 2 2 2 1 1 1 1 1 1 1 1 1 1 1 1
0 0 0 0 0 0 0 0 0 0 0 1 1 2 2 2 1 1 1 1 3 5 5 3 2 2 2 2 2 2 2 2 2 3 3 2 2 2 2 2 2 2 2 2 2 1 1 1 1
0 0 0 0 0 0 0 0 0 1 1 2 3 4 3 2 1 1 1 1 2 4 4 3 2 2 2 2 2 2 2 2 3 4 3 3 3 3 3 3 3 2 2 2 2 2 2 1 1
0 0 0 0 0 0 0 0 1 1 3 4 4 4 3 2 2 2 2 2 2 3 4 3 3 3 3 3 3 3 3 3 4 5 5 5 4 4 4 4 4 4 3 3 3 2 2 2 1
0 0 0 0 0 0 1 1 1 2 3 3 3 3 4 4 4 4 4 3 3 3 4 5 5 5 4 4 5 5 5 5 5 6 6 6 6 5 5 5 5 5 4 4 3 3 2 2 2
0 0 0 0 0 0 1 1 2 2 3 4 4 5 6 7 8 8 8 7 6 5 6 7 8 8 7 7 7 8 7 7 7 7 7 7 6 6 5 6 6 6 5 4 4 4 3 2 2
0 0 0 0 0 0 1 2 2 3 4 5 6 7 9 11 13 14 13 11 9 8 7 8 9 10 10 9 9 9 8 8 8 7 7 7 7 7 7 7 7 6 6 5 5 4 4 3 3
0 0 0 0 0 0 1 2 2 4 5 6 7 8 10 12 14 16 16 15 12 10 9 10 11 11 11 10 9 8 8 8 8 8 8 8 8 9 9 8 7 6 6 6 6 5 4 4 3
0 0 0 0 0 1 1 2 4 5 5 6 7 8 9 11 13 14 16 16 15 13 13 13 13 12 10 9 8 8 9 9 9 9 9 8 8 8 9 8 7 6 7 7 7 6 5 4 4
0 0 0 0 0 0 1 3 5 6 5 6 7 7 8 9 11 13 15 16 16 15 15 15 13 11 9 8 8 8 8 9 10 9 8 8 7 8 8 8 7 7 7 7 6 5 5 4 4
0 0 0 0 0 0 1 3 5 6 6 6 7 7 8 8 10 12 12 13 13 14 14 12 11 10 9 8 8 8 8 8 8 7 7 6 6 7 8 8 7 7 7 6 5 5 5 5 4
0 0 0 0 1 1 2 3 4 5 6 6 7 7 6 6 7 8 9 9 9 10 10 9 8 8 8 8 8 7 7 7 6 5 5 5 5 5 7 7 7 6 5 5 4 4 5 5 5
0 0 0 0 1 1 2 3 3 4 5 6 6 5 4 3 4 4 5 5 6 6 6 6 6 6 6 7 6 6 5 5 4 4 4 4 3 3 4 5 5 4 4 4 4 4 5 4 4
0 0 0 0 1 1 2 3 3 3 4 4 4 3 2 2 2 2 3 3 4 4 4 4 4 4 5 5 5 4 4 4 4 3 3 3 2 2 2 3 4 3 3 3 3 4 4 3 3
0 0 0 0 1 1 2 3 4 5 5 3 2 2 1 1 1 2 2 2 3 3 3 3 3 4 4 5 5 4 4 4 4 4 3 3 2 2 2 2 3 2 2 3 3 3 3 3 3
0 0 0 0 0 1 1 2 4 5 4 2 1 1 1 1 1 1 1 2 2 2 2 2 2 3 4 5 4 4 4 4 4 4 3 3 2 2 2 2 2 2 2 2 2 2 2 2 2
0 0 0 0 0 0 1 1 2 3 2 2 1 1 1 1 1 1 1 1 1 1 1 2 2 3 4 4 4 3 3 3 3 3 3 2 2 2 2 2 2 2 2 2 2 2 2 2 2
0 0 0 0 0 0 0 1 1 1 2 2 1 1 1 1 1 1 1 1 1 1 1 2 3 4 4 3 3 3 3 2 2 2 2 2 2 2 2 2 2 2 2 2 2 2 2 2 2
0 0 0 0 0 0 0 1 1 2 2 1 1 1 1 1 1 1 1 1 1 2 2 3 4 4 4 4 4 3 3 2 2 1 1 2 2 2 2 2 2 2 2 2 2 2 2 2 2
0 0 0 0 0 0 1 1 1 1 1 1 1 1 1 1 1 1 1 1 2 2 3 3 4 4 5 4 4 3 3 2 1 1 1 1 1 1 1 1 2 2 2 1 2 2 2 2 2
0 0 0 0 0 0 1 1 1 1 1 1 1 1 1 1 1 1 1 1 1 2 3 3 3 4 4 4 4 3 2 2 1 1 1 1 1 1 1 1 1 1 2 1 1 1 2 2 2
0 0 0 0 0 0 1 1 1 1 1 1 1 1 1 1 1 1 1 1 1 1 2 3 3 3 3 3 2 2 2 2 2 1 1 1 1 1 1 1 1 1 2 1 1 1 1 1 2
0 0 0 0 0 0 0 1 1 1 1 1 1 1 1 1 1 1 1 1 1 1 1 2 2 2 2 2 1 1 1 2 2 1 1 1 1 1 1 1 1 1 1 1 1 1 1 1 1
0 0 0 0 0 0 0 1 1 1 0 0 0 0 0 1 0 0 0 0 0 0 1 1 1 1 1 1 1 1 1 2 2 1 1 1 1 1 1 1 1 1 1 1 1 1 1 1 1

GEFSSGP_con_maxscp_078.txt.gz
SCP
0 0 0 0 0 0 0 0 0 0 0 0 0 1 1 0 0 0 1 1 1 1 1 1 1 2 1 1 1 1 1 1 1 1 1 1 1 1 1 1 1 0 0 0 0 0 0 0 0
0 0 0 0 0 0 0 0 0 0 0 0 1 1 1 1 1 1 1 1 1 1 1 1 1 1 1 1 1 1 1 1 1 1 1 1 0 0 0 1 1 1 0 0 0 0 0 0 0
0 0 0 0 0 0 0 1 1 1 1 1 1 1 1 1 1 1 1 1 1 1 1 1 1 1 1 1 1 1 1 1 1 1 1 0 0 0 0 0 1 0 0 0 0 0 0 0 0
0 0 0 0 0 0 1 1 1 1 1 1 1 1 1 1 2 2 2 2 1 1 1 1 1 1 1 1 1 1 1 1 1 1 1 1 1 1 1 0 0 0 0 1 0 0 0 0 0
0 0 0 0 0 1 1 1 1 1 1 1 1 2 2 2 3 3 2 2 2 1 1 1 1 1 1 1 1 1 1 1 1 1 1 1 1 1 1 1 1 1 1 1 1 1 1 1 0
0 0 0 0 0 0 1 1 1 2 2 2 2 2 2 3 3 3 3 2 2 2 1 1 1 1 1 1 1 1 1 1 1 1 1 1 1 1 1 1 1 1 1 1 1 1 1 1 1
0 0 0 0 0 0 0 1 2 2 2 2 2 2 2 2 3 3 3 2 2 2 1 1 1 2 1 1 1 1 1 1 1 1 1 1 2 2 1 1 1 1 1 1 1 1 1 1 1
0 0 0 0 0 0 0 1 2 2 2 2 2 2 1 2 2 3 3 3 2 2 1 1 1 2 2 1 1 1 1 1 1 1 1 1 1 1 1 1 1 1 1 2 2 1 1 1 1
0 0 0 0 0 0 0 1 2 2 2 3 3 2 2 2 3 4 4 3 3 2 2 1 1 2 2 2 1 1 2 2 2 2 2 1 1 1 1 1 1 2 2 2 2 2 2 1 1
0 0 0 0 0 0 1 1 2 2 3 3 4 5 5 4 4 5 5 5 4 3 3 2 2 2 2 2 2 2 2 2 2 1 1 1 1 1 1 1 1 2 2 2 2 2 2 2 1
0 0 0 0 0 1 1 2 3 3 4 4 6 8 8 8 7 6 7 6 5 4 3 3 2 2 2 2 2 2 2 2 2 1 1 2 1 1 1 1 1 2 2 2 2 2 2 2 2
0 0 0 0 0 1 2 3 4 5 6 7 8 10 11 10 8 8 8 7 6 5 4 3 2 2 2 2 2 2 2 2 2 2 2 2 2 2 1 1 1 2 2 2 3 3 2 2 2
0 0 0 0 1 2 3 3 5 6 8 10 11 12 13 12 10 10 9 8 7 6 5 4 4 3 2 2 2 2 2 2 2 2 2 2 2 2 2 2 2 2 2 3 3 3 3 3 3
0 0 0 0 1 2 3 4 5 7 10 11 13 14 14 14 13 12 11 9 8 7 7 6 5 5 4 3 3 3 3 3 3 3 2 3 3 3 3 2 2 2 2 2 3 3 4 4 3
0 0 0 0 1 2 3 4 5 7 9 10 11 12 13 13 13 12 10 8 8 8 7 7 6 5 4 4 3 3 3 3 3 3 3 3 3 3 3 3 3 3 3 3 3 3 4 4 4
0 0 0 1 1 1 2 4 5 6 8 8 8 9 9 9 10 9 8 7 7 7 7 7 6 5 4 4 3 3 3 3 3 3 3 3 3 3 3 3 3 3 3 3 3 4 4 4 3
0 0 0 1 1 1 2 3 4 5 6 7 7 6 6 7 7 7 7 7 6 6 6 6 5 5 4 3 3 3 3 2 2 2 2 3 3 3 2 2 3 3 3 3 4 4 3 3 2
0 0 0 1 1 2 2 3 3 4 5 6 5 4 4 4 4 5 6 6 6 5 4 4 4 4 3 3 2 2 2 2 2 2 2 2 2 2 1 1 2 2 2 3 4 4 3 2 2
0 0 0 1 1 2 2 2 2 3 4 4 3 3 2 2 2 3 4 5 4 3 3 2 2 2 2 2 2 2 2 2 2 1 1 1 1 1 1 1 1 1 1 2 2 2 2 2 2
0 0 0 1 1 1 1 2 2 2 3 3 2 1 1 1 1 2 2 2 2 2 2 2 1 1 1 1 1 1 1 1 1 1 1 1 1 1 1 1 1 1 1 1 1 1 1 2 2
0 0 0 1 1 1 1 1 1 2 2 2 1 1 1 1 1 1 1 1 1 1 1 1 1 1 1 1 1 1 1 1 1 0 0 0 1 1 1 1 1 0 0 0 0 1 1 1 1
0 0 0 0 0 0 0 1 1 1 1 1 1 1 1 1 1 1 1 1 1 1 1 1 1 1 0 0 0 0 0 0 0 0 0 0 0 0 1 1 0 0 0 0 0 0 0 0 1
0 0 0 0 0 0 0 0 1 1 1 1 1 1 1 1 1 1 1 1 1 1 1 0 0 0 0 0 0 0 0 0 0 0 0 0 0 0 0 0 0 0 0 0 0 0 0 0 0
0 0 0 0 0 0 0 0 0 1 1 1 1 1 1 1 1 1 1 1 1 1 0 0 0 0 0 0 0 0 0 0 0 0 0 0 0 0 0 0 0 0 0 0 0 0 0 0 0
0 0 0 0 0 0 0 0 0 0 1 1 1 1 1 1 0 0 0 0 0 0 0 0 0 0 0 0 0 0 0 0 0 0 0 0 0 0 0 0 0 0 0 0 0 0 0 0 0
0 0 0 0 0 0 0 0 0 0 1 1 1 1 1 0 0 0 0 0 0 0 0 0 0 0 0 0 0 0 0 0 0 0 0 0 0 0 0 0 0 0 0 0 0 0 0 0 0
0 0 0 0 0 0 0 0 0 0 0 0 0 0 1 0 0 0 0 0 0 0 0 0 0 0 0 0 0 0 0 0 0 0 0 0 0 0 0 0 0 0 0 0 0 0 0 0 0
0 0 0 0 0 0 0 0 0 0 0 0 0 0 0 0 0 0 0 0 0 0 0 0 0 0 0 0 0 0 0 0 0 0 0 0 0 0 0 0 0 0 0 0 0 0 0 0 0
0 0 0 0 0 0 0 0 0 0 0 0 0 0 0 0 0 0 0 0 0 0 0 0 0 0 0 0 0 0 0 0 0 0 0 0 0 0 0 0 0 0 0 0 0 0 0 0 0
0 0 0 0 0 0 0 0 0 0 0 0 0 0 0 0 0 0 0 0 0 0 0 0 0 0 0 0 0 0 0 0 0 0 0 0 0 0 0 0 0 0 0 0 0 0 0 0 0

GEFSSGP_con_maxscp_084.txt.gz
SCP
0 0 0 0 0 0 0 0 0 0 0 0 0 0 1 1 1 1 1 1 1 1 1 1 1 1 1 1 1 1 1 1 1 1 1 1 1 1 1 1 0 0 0 0 0 0 0 0 0
0 0 0 0 0 0 0 0 0 0 0 0 0 0 1 1 1 1 1 1 1 1 1 1 2 2 2 2 1 1 1 1 1 1 1 1 1 1 1 1 0 0 0 0 0 0 0 0 0
0 0 0 0 0 0 0 1 1 1 0 0 0 0 1 1 1 1 1 1 1 1 1 1 2 2 2 2 2 1 1 1 1 1 1 1 1 1 1 1 0 0 0 0 0 0 0 0 0
0 0 0 0 0 0 0 1 1 1 0 0 1 1 1 1 1 1 1 1 2 1 1 2 2 2 2 2 2 2 1 1 1 1 1 1 1 1 1 1 0 0 0 0 0 0 0 0 0
0 0 0 0 0 0 1 1 0 0 0 1 1 1 1 1 1 1 1 2 2 2 1 2 2 3 2 2 2 2 1 1 1 1 1 1 1 1 1 1 1 0 0 0 0 0 0 0 0
0 0 0 0 0 0 0 0 0 1 1 1 1 1 1 1 1 1 2 2 2 2 2 2 2 2 2 2 2 2 1 1 1 1 1 1 1 1 1 1 1 1 0 0 0 0 0 0 1
1 0 0 0 0 0 0 0 1 1 1 1 1 1 1 1 1 2 2 2 2 2 2 2 2 2 2 2 2 1 1 1 1 1 1 1 1 1 1 1 1 1 1 1 1 1 1 1 1
0 0 0 0 0 0 0 0 1 1 1 1 1 1 1 2 2 2 2 2 3 3 2 2 2 2 2 2 2 1 1 1 1 1 1 1 1 1 1 1 1 1 1 1 1 1 1 1 1
0 0 0 0 0 0 0 1 1 1 1 1 1 1 2 3 3 3 3 3 3 2 2 2 2 2 2 2 2 2 1 1 1 1 1 1 1 1 1 1 1 1 1 1 1 1 1 1 1
0 0 0 0 0 0 1 1 1 1 1 2 2 2 3 4 4 3 3 3 3 3 3 2 2 2 2 2 2 2 2 2 1 1 1 1 1 1 1 1 1 1 1 1 1 1 1 1 2
0 0 0 1 1 1 1 1 2 2 2 2 3 4 5 5 4 4 3 3 3 3 3 3 3 2 2 2 2 2 2 2 2 1 1 1 1 1 1 1 1 1 1 1 2 2 2 2 2
0 0 0 1 1 1 2 2 2 3 3 4 5 6 7 6 4 3 3 3 3 3 3 3 3 3 3 3 2 2 2 2 2 2 2 2 2 2 2 2 2 2 2 2 2 2 1 2 2
0 0 0 1 2 2 3 3 3 4 4 6 7 8 7 6 4 4 4 4 4 3 3 3 3 3 3 3 3 2 2 2 2 2 2 2 2 2 2 2 2 2 2 2 2 2 1 1 2
0 0 0 1 1 2 3 4 4 4 5 7 9 9 7 6 5 5 5 5 5 4 3 3 3 3 3 3 2 2 2 2 2 2 2 2 2 2 2 2 2 2 2 3 3 2 2 2 2
0 0 0 0 1 1 3 4 4 4 5 7 8 9 7 6 5 5 5 5 5 4 3 3 3 2 2 2 2 2 2 2 2 2 2 2 2 2 2 2 2 2 2 3 3 2 2 2 2
0 0 0 0 1 1 2 3 3 4 6 7 7 7 6 5 4 4 4 5 4 4 3 2 2 2 2 2 2 2 2 2 2 2 2 2 2 2 2 2 2 2 1 2 2 2 3 3 2
0 0 0 0 1 1 1 2 3 4 5 6 5 5 4 4 3 3 3 4 3 3 2 2 2 2 2 1 1 1 1 1 1 2 2 2 2 1 1 1 1 1 1 1 1 2 2 3 2
0 0 0 0 1 1 1 1 2 3 4 4 4 3 3 3 2 2 2 2 2 2 1 1 1 1 1 1 1 0 1 1 1 1 1 1 1 1 1 1 1 1 1 1 1 1 2 2 2
0 0 0 1 1 1 1 1 2 3 3 4 3 2 2 2 2 1 1 1 1 1 1 1 1 1 0 0 0 0 0 0 0 1 1 1 1 1 1 1 1 0 0 0 0 0 1 1 1
0 0 0 0 1 1 1 1 1 2 3 3 3 1 1 1 1 1 1 1 0 0 0 0 0 0 0 0 0 0 0 0 0 0 0 0 1 1 1 0 0 0 0 0 0 0 0 0 1
0 0 0 0 1 1 1 0 1 1 2 2 2 1 1 1 1 0 0 0 0 0 0 0 0 0 0 0 0 0 0 0 0 0 0 0 0 0 0 0 0 0 0 0 0 0 0 0 0
0 0 0 0 0 0 0 0 0 1 1 1 1 1 1 0 0 0 0 0 0 0 0 0 0 0 0 0 0 0 0 0 0 0 0 0 0 0 0 0 0 0 0 0 0 0 0 0 0
0 0 0 0 0 0 0 0 0 0 0 1 1 1 0 0 0 0 0 0 0 0 0 0 0 0 0 0 0 0 0 0 0 0 0 0 0 0 0 0 0 0 0 0 0 0 0 0 0
0 0 0 0 0 0 0 0 0 0 0 0 0 0 0 0 0 0 0 0 0 0 0 0 0 0 0 0 0 0 0 0 0 0 0 0 0 0 0 0 0 0 0 0 0 0 0 0 0
0 0 0 0 0 0 0 0 0 0 0 0 0 0 0 0 0 0 0 0 0 0 0 0 0 0 0 0 0 0 0 0 0 0 0 0 0 0 0 0 0 0 0 0 0 0 0 0 0
0 0 0 0 0 0 0 0 0 0 0 0 0 0 0 0 0 0 0 0 0 0 0 0 0 0 0 0 0 0 0 0 0 0 0 0 0 0 0 0 0 0 0 0 0 0 0 0 0
0 0 0 0 0 0 0 0 0 0 0 0 0 0 0 0 0 0 0 0 0 0 0 0 0 0 0 0 0 0 0 0 0 0 0 0 0 0 0 0 0 0 0 0 0 0 0 0 0
0 0 0 0 0 0 0 0 0 0 0 0 0 0 0 0 0 0 0 0 0 0 0 0 0 0 0 0 0 0 0 0 0 0 0 0 0 0 0 0 0 0 0 0 0 0 0 0 0
0 0 0 0 0 0 0 0 0 0 0 0 0 0 0 0 0 0 0 0 0 0 0 0 0 0 0 0 0 0 0 0 0 0 0 0 0 0 0 0 0 0 0 0 0 0 0 0 0
0 0 0 0 0 0 0 0 0 0 0 0 0 0 0 0 0 0 0 0 0 0 0 0 0 0 0 0 0 0 0 0 0 0 0 0 0 0 0 0 0 0 0 0 0 0 0 0 0

GEFSSGP_con_maxscp_090.txt.gz
SCP
1 0 0 0 0 0 0 0 0 0 0 0 0 0 0 0 1 1 1 1 1 1 1 2 1 1 1 1 1 1 1 1 1 1 1 1 1 1 1 0 0 0 0 0 0 0 0 0 0
0 0 0 0 0 0 0 0 0 0 0 0 0 0 0 1 1 1 1 1 1 1 1 2 2 1 1 1 1 1 1 1 1 1 1 1 1 1 1 1 0 0 0 0 0 0 0 0 0
0 0 0 0 0 0 0 0 0 0 0 0 0 0 1 1 1 2 1 1 1 1 1 2 2 2 1 1 1 1 1 1 1 1 1 1 1 1 1 0 0 0 0 0 0 0 0 0 0
0 0 0 0 0 0 0 0 0 0 0 0 0 1 1 2 2 2 1 1 1 1 1 2 2 2 1 1 1 1 1 1 1 1 1 1 1 1 0 0 0 0 0 0 0 0 0 0 0
0 0 0 0 0 0 0 0 0 0 0 0 0 1 2 3 3 2 2 1 1 1 2 3 3 2 2 2 2 1 1 1 1 1 1 1 1 1 0 0 0 0 0 0 0 0 0 0 0
0 0 0 0 0 0 0 0 1 1 1 0 1 1 2 3 3 3 2 2 1 1 2 3 3 2 2 2 2 2 2 1 1 1 1 0 0 0 0 0 0 0 0 0 0 0 0 0 0
0 0 0 0 0 0 0 0 1 1 1 1 1 1 2 3 3 3 2 2 2 1 2 3 3 2 2 2 2 2 2 1 1 1 1 0 0 0 0 1 1 1 1 1 1 1 1 1 1
0 0 0 0 0 0 0 1 1 1 1 1 1 2 2 3 3 3 3 3 2 2 2 2 2 2 1 1 1 2 2 2 1 1 1 1 1 1 1 1 1 1 1 1 1 1 1 1 1
0 0 0 0 0 0 0 1 1 1 1 2 2 2 3 3 3 3 3 3 3 2 2 2 2 1 1 1 1 1 1 2 2 2 2 1 1 1 1 1 2 2 2 2 2 2 2 1 1
0 0 0 0 0 0 1 1 1 1 2 2 2 3 3 3 3 3 3 2 3 3 2 2 2 2 1 1 1 1 2 2 2 2 2 2 2 2 2 2 2 2 2 1 2 2 2 2 1
0 0 0 0 0 0 1 1 2 2 2 3 3 3 3 3 3 3 3 3 3 3 2 2 2 2 2 2 2 2 2 2 2 2 3 3 2 2 2 2 2 2 1 1 1 2 2 2 2
0 0 0 0 0 0 1 2 2 3 3 3 3 3 3 3 3 3 3 3 3 3 3 3 3 3 3 3 3 3 3 3 2 3 3 3 3 2 2 2 2 2 2 2 2 2 2 2 2
0 0 0 0 0 0 1 2 2 3 3 3 3 3 3 3 3 3 3 4 3 3 3 4 4 4 3 3 3 3 4 3 3 3 3 3 3 2 2 3 3 2 2 2 2 2 3 3 3
0 0 0 0 0 0 1 1 2 3 3 3 4 3 3 3 3 3 3 3 3 3 3 5 6 5 3 3 3 3 3 4 3 3 3 3 2 2 2 3 3 3 3 3 3 3 3 3 3
0 0 0 0 0 0 1 1 2 2 3 3 4 4 4 3 3 3 3 3 3 3 4 5 5 4 3 2 2 2 3 3 3 2 2 2 2 2 2 3 3 3 3 4 4 3 3 3 3
0 0 0 0 0 0 1 1 2 2 2 3 4 4 3 3 4 4 4 4 4 4 4 4 4 3 2 2 2 2 2 2 2 2 3 3 2 2 2 3 3 4 4 4 3 3 2 3 3
0 0 0 0 0 0 1 1 1 2 2 3 4 3 3 3 3 4 4 4 4 5 4 4 4 3 3 3 3 3 2 2 2 3 4 3 3 2 3 3 3 3 3 3 3 3 3 3 3
0 0 0 0 0 0 1 1 1 1 2 2 3 3 3 3 3 3 3 3 4 4 4 4 4 4 3 3 3 3 2 2 2 3 4 3 2 2 2 3 3 3 3 3 2 2 2 3 3
0 0 0 0 0 1 1 1 1 1 2 2 2 2 2 2 2 2 3 2 3 3 3 4 4 3 3 3 2 2 1 1 1 2 2 2 2 2 2 2 2 2 2 2 2 2 2 2 2
0 0 0 0 1 1 1 1 1 1 1 1 2 2 2 2 2 2 2 1 2 2 2 2 3 2 2 2 1 1 1 1 1 1 1 1 1 1 1 1 1 1 1 1 1 2 2 2 2
0 0 0 0 0 0 0 1 1 1 1 1 1 2 2 2 1 1 1 1 1 1 1 2 2 2 1 1 1 1 1 1 1 1 1 1 1 1 1 1 1 1 1 1 1 1 1 1 1
0 0 0 0 0 0 0 0 1 1 1 1 1 1 1 1 1 1 1 1 1 1 1 1 2 2 1 1 1 1 1 1 1 1 1 1 1 1 1 1 1 1 0 0 1 1 1 1 2
0 0 0 0 0 0 0 0 0 1 1 1 1 1 1 1 1 1 1 1 1 1 1 1 1 2 2 2 2 1 1 1 1 1 1 1 1 1 1 1 0 0 0 0 0 0 1 1 2
0 0 0 0 0 0 0 0 0 0 0 0 1 1 1 1 0 0 0 0 1 1 1 1 1 2 2 2 2 2 1 1 1 1 1 1 1 1 1 0 0 0 0 0 0 0 1 1 2
0 0 0 0 0 0 0 0 0 0 0 0 0 1 1 1 1 0 1 1 1 1 1 1 1 1 2 2 2 2 2 1 1 1 1 1 1 1 0 0 0 0 0 0 0 0 1 1 1
0 0 0 0 0 0 0 0 0 0 0 0 0 1 1 1 1 1 1 1 1 1 1 1 1 1 1 1 1 1 2 2 1 1 1 1 0 0 0 0 0 0 0 0 0 0 0 1 1
0 0 0 0 0 0 0 0 0 0 0 0 1 1 1 1 1 1 1 1 1 1 1 1 1 1 1 1 1 1 1 1 1 1 0 0 0 0 0 0 0 0 0 0 0 0 0 0 0
0 0 0 0 0 0 0 0 0 0 0 0 1 1 1 1 1 1 1 1 1 1 1 1 1 1 1 1 1 1 1 1 0 0 0 0 0 0 0 0 0 0 0 0 0 0 0 0 0
0 0 0 0 0 0 0 0 0 0 0 0 0 1 0 0 0 1 1 1 1 1 1 1 1 1 1 1 1 0 0 0 0 0 0 0 0 0 0 0 0 0 0 0 0 0 0 0 0
0 0 0 0 0 0 0 0 0 0 0 0 0 0 0 0 0 0 1 1 1 1 1 1 1 1 1 1 0 0 0 0 0 0 0 0 0 0 0 0 0 0 0 0 0 0 0 0 0

GEFSSGP_con_maxscp_096.txt.gz
SCP
1 1 1 1 1 2 2 1 0 0 0 0 0 1 1 1 1 1 2 3 4 4 3 3 3 2 1 1 1 1 1 1 1 1 1 0 0 0 0 0 0 0 0 0 0 0 0 0 0
1 1 1 1 1 1 1 1 0 0 0 0 1 1 1 1 1 1 2 3 4 4 3 3 3 2 2 1 1 1 1 1 1 1 1 0 0 0 0 0 0 0 0 0 0 0 0 0 0
1 1 1 1 1 1 1 0 0 0 0 0 1 1 2 1 1 1 2 3 3 3 3 3 3 3 2 1 1 1 1 1 1 1 1 1 0 0 1 1 0 0 0 0 0 0 0 0 0
1 0 0 1 1 1 0 0 0 0 0 1 1 2 2 1 1 1 2 2 3 3 3 4 3 3 2 1 1 1 1 1 1 1 1 1 1 1 1 1 0 0 0 0 0 0 0 0 0
1 0 0 1 1 1 0 0 1 1 1 1 2 3 3 2 2 1 1 2 3 4 4 4 3 2 2 1 1 1 1 1 1 1 1 1 1 1 1 1 0 0 0 0 0 0 0 0 0
0 0 0 0 0 0 0 1 1 1 1 1 3 4 4 3 2 1 1 2 4 6 6 4 3 3 2 2 1 1 1 1 1 1 1 1 1 1 1 1 1 1 1 1 1 1 1 0 0
0 0 0 0 0 0 0 0 1 1 1 2 3 4 4 3 2 2 2 2 5 9 7 4 4 4 3 2 2 1 1 1 1 1 1 1 1 1 1 1 1 1 1 1 1 1 1 0 0
0 0 0 0 0 0 0 1 1 2 3 3 4 4 4 3 2 3 3 3 6 8 7 4 4 4 4 3 2 2 1 1 1 1 1 1 1 1 1 1 1 1 1 1 1 1 1 1 0
0 0 0 0 0 0 0 1 1 2 4 6 6 7 5 3 3 3 3 4 5 6 5 4 4 4 3 3 2 2 1 1 1 1 1 1 1 2 2 2 2 1 1 1 1 1 1 1 1
0 0 0 0 0 0 0 1 1 3 5 7 8 9 7 4 3 3 3 4 5 5 5 5 5 4 4 3 3 2 2 2 1 2 2 2 2 3 3 3 3 2 2 2 2 2 1 1 1
0 0 0 0 0 0 1 1 2 3 4 6 8 9 7 5 4 3 3 5 5 6 8 9 8 6 5 5 4 3 3 2 2 3 3 3 3 3 3 3 3 3 2 2 2 2 2 1 1
0 0 0 0 0 0 1 2 3 3 3 4 6 6 6 6 5 4 4 4 5 7 10 11 10 8 8 7 6 5 4 3 3 4 4 4 4 3 3 4 4 3 3 2 2 3 3 2 2
0 0 0 0 0 1 1 2 3 3 3 4 5 6 6 7 7 6 5 4 6 9 10 10 9 9 8 8 7 5 4 3 3 4 4 5 5 4 4 4 5 4 3 3 3 3 3 3 3
0 0 0 0 0 1 2 3 3 3 4 4 6 7 7 7 8 7 5 5 7 8 8 8 8 8 8 7 6 4 3 3 3 3 4 4 4 4 4 5 5 4 3 3 3 3 3 3 3
0 0 0 0 0 1 2 3 4 4 4 4 6 7 7 7 8 7 5 5 6 7 6 6 6 6 6 5 4 3 2 2 2 3 4 4 4 4 4 4 4 3 3 3 2 2 2 2 2
0 0 0 0 0 1 1 3 4 4 4 4 5 6 7 8 7 7 6 6 6 6 5 4 4 4 4 4 3 3 2 2 2 3 3 3 3 4 4 3 3 3 3 3 2 2 2 2 2
0 0 0 0 0 1 1 3 4 3 3 4 5 6 7 7 7 6 6 6 6 6 5 4 3 3 3 3 3 3 2 2 2 2 3 3 2 3 3 3 3 3 3 3 2 2 2 2 2
0 0 0 0 0 1 1 2 3 3 3 4 5 5 5 5 5 4 4 5 5 5 5 4 4 4 4 4 3 3 2 1 1 1 2 2 1 2 2 3 3 3 3 2 2 2 2 2 2
0 0 0 0 1 1 1 2 2 2 2 3 3 3 4 3 3 3 3 4 4 4 4 4 4 5 4 3 3 2 2 1 1 1 1 1 1 2 2 2 2 2 2 2 2 2 1 1 2
0 0 0 0 1 1 1 2 3 3 2 2 2 2 2 2 2 2 3 3 3 4 3 4 4 5 4 3 2 2 1 1 1 1 1 2 2 2 2 2 2 2 1 1 1 1 1 1 1
0 0 0 0 1 1 1 1 3 3 2 2 2 2 2 2 2 2 2 2 2 3 3 3 4 4 3 2 2 2 1 1 1 1 2 2 2 2 2 2 2 1 1 1 1 1 1 1 1
0 0 0 0 1 1 1 1 2 3 2 1 1 2 2 2 2 2 2 2 2 2 2 3 4 4 3 2 2 2 2 2 1 2 2 2 1 1 2 2 2 1 1 1 1 1 1 1 1
0 0 0 0 0 0 0 1 2 2 2 1 1 1 2 2 1 1 2 2 1 1 2 3 4 4 3 2 2 2 2 2 1 1 2 1 1 1 1 2 2 2 1 1 1 1 1 1 1
0 0 0 0 0 0 0 1 1 1 1 1 1 1 1 1 1 2 2 2 1 1 2 3 4 4 3 2 2 2 2 1 1 1 1 1 1 1 1 1 2 1 1 1 1 1 1 1 1
0 0 1 0 0 0 0 1 1 1 0 1 1 1 1 1 2 3 3 2 1 2 2 3 5 4 3 2 2 2 1 1 1 1 1 1 1 1 1 1 1 1 1 1 1 1 1 0 0
0 0 0 0 0 0 0 0 0 0 0 0 0 0 1 1 3 3 2 2 1 2 2 3 4 4 2 2 2 2 1 1 1 1 1 1 1 1 1 1 1 1 1 1 1 1 0 0 0
0 0 0 0 0 0 0 1 0 0 0 0 0 0 1 1 2 2 2 1 1 1 2 3 3 3 2 2 2 2 2 1 1 1 1 1 1 0 0 0 0 0 0 0 0 0 0 0 0
0 0 0 0 0 0 0 0 0 0 0 0 0 1 1 1 2 2 1 1 1 1 1 2 2 2 2 2 2 2 2 2 1 1 1 0 0 0 0 0 0 0 0 0 0 0 0 0 0
0 0 0 0 0 0 0 0 0 0 0 0 1 1 1 1 1 1 1 1 1 1 1 1 1 2 2 2 2 2 2 1 1 1 0 0 0 0 0 0 0 0 0 0 0 0 0 0 0
0 0 0 0 0 0 0 0 0 0 0 1 1 1 1 1 1 1 1 1 1 1 1 1 1 2 2 2 2 2 2 1 1 0 0 0 0 0 0 0 0 0 0 0 0 0 0 0 0

GEFSSGP_con_maxscp_102.txt.gz
SCP
1 1 0 0 1 1 1 1 0 0 1 1 2 3 2 1 1 1 1 1 2 2 3 3 4 3 3 2 1 1 1 0 0 0 0 0 0 0 0 0 0 0 0 0 0 0 0 0 0
1 1 0 0 1 1 1 1 1 1 2 2 4 4 3 2 1 1 1 1 2 2 3 3 4 4 3 2 1 1 1 0 0 0 0 0 0 0 0 0 0 0 0 0 0 0 0 0 0
1 0 0 0 1 1 1 1 1 2 3 3 5 5 3 2 2 1 1 2 2 2 3 4 4 4 3 2 2 1 1 0 0 0 0 0 0 0 0 0 0 0 0 0 0 0 0 0 0
0 0 1 1 1 1 1 1 1 2 3 3 4 4 3 2 2 2 2 2 2 2 3 3 4 3 3 2 2 1 1 1 0 0 0 0 0 0 0 0 0 0 0 0 0 0 0 0 0
1 1 1 1 1 1 1 1 2 2 2 3 3 3 3 3 3 2 2 2 3 3 3 3 3 3 2 2 2 1 1 1 1 0 0 0 0 0 0 0 0 0 0 0 0 0 0 0 0
1 1 1 0 0 1 1 2 3 3 3 3 3 3 3 3 3 3 2 3 3 3 3 3 3 3 3 3 2 2 1 1 1 1 1 1 0 0 0 0 0 0 0 0 0 0 0 0 0
1 1 0 0 0 0 1 2 3 4 4 4 3 3 3 3 4 3 3 3 3 3 4 3 3 3 3 3 3 2 2 1 1 1 1 1 1 0 0 0 0 0 0 0 0 1 1 1 1
0 0 0 0 0 0 1 2 2 3 4 4 4 4 4 4 5 5 4 4 4 5 5 4 3 3 3 4 4 3 2 2 1 1 1 1 1 1 1 1 1 1 1 1 1 1 1 1 1
0 0 0 0 0 0 1 1 2 3 4 4 5 6 6 6 6 6 6 6 5 5 5 4 3 3 4 4 4 3 3 2 1 1 1 1 1 1 1 1 1 1 1 1 1 1 1 1 1
0 0 0 0 0 1 1 2 2 2 3 4 6 7 8 7 7 8 8 7 6 5 4 3 3 3 4 4 4 3 2 2 1 1 1 1 1 1 1 1 1 1 1 1 1 1 1 1 1
0 0 0 0 1 1 1 2 2 3 3 4 6 7 8 7 7 8 8 8 6 4 3 3 3 3 3 4 4 3 2 2 1 1 1 1 1 1 1 1 1 1 1 1 1 1 1 1 1
0 0 0 1 1 1 1 2 3 3 3 4 6 8 7 6 5 7 8 7 5 3 4 4 3 2 2 3 3 3 2 2 1 1 1 1 1 1 1 1 2 1 1 1 2 1 1 1 1
0 0 1 1 1 1 1 2 3 4 4 5 6 7 6 5 4 5 6 5 4 3 4 4 2 2 2 2 2 2 2 2 1 1 1 1 1 1 1 1 1 1 1 1 1 1 1 1 1
0 0 1 1 1 1 1 2 3 4 6 7 7 6 5 4 3 4 4 4 4 4 4 4 2 2 2 2 2 2 2 1 1 1 1 1 1 1 1 1 1 1 1 1 1 1 1 1 1
0 0 0 0 1 1 1 2 3 4 6 8 8 7 5 4 4 4 4 4 5 5 4 3 2 2 2 2 2 1 1 1 1 1 1 1 1 1 1 1 1 1 1 1 1 1 1 1 1
0 0 0 0 0 0 1 2 2 4 6 8 9 8 6 6 5 5 4 4 5 4 4 3 2 2 2 2 1 1 1 1 1 1 1 1 1 1 1 2 1 1 1 1 1 0 1 0 0
0 0 0 0 0 1 1 1 2 3 4 7 9 8 6 5 5 4 4 4 3 3 3 3 2 2 2 2 1 1 1 1 1 1 1 0 0 1 1 2 1 1 1 1 0 0 0 0 0
0 0 0 0 1 1 1 1 2 2 3 6 8 7 5 4 4 4 3 3 2 2 3 2 2 2 2 1 1 1 1 1 0 0 0 0 0 0 1 1 1 1 0 0 0 0 0 0 0
0 0 0 0 1 1 1 1 2 2 3 5 5 5 4 3 3 3 3 2 2 2 2 2 2 1 1 1 1 1 0 0 0 0 0 0 0 0 0 0 0 0 0 0 0 0 0 0 0
0 0 0 0 1 1 1 1 2 2 3 3 3 3 2 2 2 2 2 2 2 2 1 1 1 1 1 1 1 0 0 0 0 0 0 0 0 0 0 0 0 0 0 0 0 0 0 0 0
0 0 0 0 1 1 1 1 2 2 2 2 2 1 1 1 1 1 2 2 2 2 1 1 1 1 1 0 0 0 0 0 0 0 0 0 0 0 0 0 0 0 0 0 0 0 0 0 0
0 0 0 0 0 0 1 1 1 1 1 1 1 1 1 1 1 1 2 2 2 1 1 1 1 0 0 0 0 0 0 0 0 0 0 0 0 0 0 0 0 0 0 0 0 0 0 0 0
0 0 0 0 0 0 0 0 0 0 1 1 1 1 1 1 1 1 2 2 2 1 1 1 1 0 0 0 0 0 0 0 0 0 0 0 0 0 0 0 0 0 0 0 0 0 0 0 0
0 0 0 0 0 0 0 0 0 0 0 1 1 1 1 1 1 1 1 2 1 1 1 1 0 0 0 0 0 0 0 0 0 0 0 0 0 0 0 0 0 0 0 0 0 0 0 0 0
0 0 0 0 0 0 0 0 0 0 0 1 1 1 1 1 1 1 1 1 1 1 0 0 0 0 0 0 0 0 0 0 0 0 0 0 0 0 0 0 0 0 0 0 0 0 0 0 0
0 0 0 0 0 0 0 0 0 0 0 1 1 1 1 1 2 1 1 1 1 1 0 0 0 0 0 0 0 0 0 0 0 0 0 0 0 0 0 0 0 0 0 0 0 0 0 0 0
0 0 0 0 0 0 0 0 0 0 1 1 1 1 1 1 1 1 1 1 1 1 1 1 1 0 0 0 0 0 0 0 0 0 0 0 0 0 0 0 0 0 0 0 0 0 0 0 0
0 0 0 0 0 0 0 0 0 0 0 1 1 1 1 1 1 1 1 1 1 1 1 1 0 0 0 0 0 0 0 0 0 0 0 0 0 0 0 0 0 0 0 0 0 0 0 0 0
0 0 0 0 0 0 0 0 0 0 0 1 1 1 1 1 1 1 1 1 0 1 1 1 0 0 0 0 0 0 0 0 0 0 0 0 0 0 0 0 0 0 0 0 0 0 0 0 0
0 0 0 0 0 0 0 0 0 0 0 0 1 1 1 1 1 1 1 1 1 1 1 1 0 0 0 0 0 0 0 0 0 0 0 0 0 0 0 0 0 0 0 0 0 0 0 0 0